Flag for Australia Weather past 2 weeks in Toowoomba, Queensland, Australia

Now
56 °F

Overcast.


Feels Like: 53 °F
Forecast: 50 / 58 °F
Wind: 15 mph from East

Location: Oakey Aerodrome

Current Time: Aug 22, 2014 at 10:20:39 AM

Latest Report: Aug 22, 2014 at 9:00 AM


Visibility: N/A

Pressure: 30.30 "Hg

Humidity: 77%

Dew point: 49 °F

Location of ToowoombaLocation

Historic Weather in Toowoomba — Graph

°F

Toowoomba temperature yesterday

Maximum temperature yesterday: 69 °F (at 3:00 PM)
Minimum temperature yesterday: 41 °F (at 6:00 AM)
Average temperature yesterday: 58 °F

Past Weeks' High & Low Weather Summary

 TemperatureHumidityPressure
High71 °F (Aug 11, 3:00 PM)99% (Aug 20, 7:00 AM)30.44 "Hg (Aug 20, 7:00 AM)
Low35 °F (Aug 11, 6:00 AM)18% (Aug 11, 4:00 PM)29.81 "Hg (Aug 17, 3:00 PM)
Average55 °F67%30.19 "Hg
* Reported Aug 7 9:00 AM — Aug 22 9:00 AM, Toowoomba, Weather by CustomWeather, © 2014

Note: Actual official high and low records may vary slightly from our data, if they occured in-between our weather recording intervals... More about our weather records

Advertising

Toowoomba weather history for previous 24 hours

 ConditionsComfort  
Time TempWeatherWind HumidityBarometerVisibility
9:00 AM
Aug 22
56 °FOvercast.15 mph77%30.30 "HgN/A
7:00 AM53 °FCool.9 mph86%30.27 "HgN/A
6:00 AM54 °FOvercast.13 mph79%30.24 "HgN/A
4:00 AM54 °FCool.16 mph76%30.21 "HgN/A
3:00 AM54 °FCool.16 mph79%30.21 "HgN/A
1:00 AM54 °FCool.14 mph86%30.27 "HgN/A
12:00 AM54 °FOvercast.8 mph84%30.28 "HgN/A
10:00 PM
Aug 21
57 °FCool.14 mph71%30.27 "HgN/A
9:00 PM57 °FOvercast.18 mph69%30.24 "HgN/A
7:00 PM60 °FCool.17 mph60%30.21 "HgN/A
6:00 PM60 °FRefreshingly cool.16 mph58%30.18 "HgN/A
4:00 PM68 °FMild.17 mph40%30.13 "HgN/A
3:00 PM69 °FOvercast.13 mph36%30.13 "HgN/A
1:00 PM69 °FMild.8 mph39%30.16 "HgN/A
12:00 PM68 °FMild.15 mph43%30.19 "HgN/A
10:00 AM65 °FMild.8 mph49%30.23 "HgN/A
Weather by CustomWeather, © 2014

See weather overviewHow to use our weather pages